Wind_Speed
16 16 17 15 15 14 11 9 7 5 5 4 7 10 12 10 9 9 10 12 12 12 12 12 13 13 10 9 10 10 11 12 14 17 18 19 20 20 20 19 19 20 22 22 23
20 19 20 20 18 17 16 14 12 10 9 7 6 7 8 10 8 7 8 10 10 12 12 12 14 14 12 11 9 11 12 13 14 15 16 17 19 20 20 21 22 23 23 24 23
25 24 23 23 23 21 20 19 17 15 13 12 10 8 7 9 9 7 8 10 10 11 13 15 14 15 13 12 11 12 14 16 17 18 18 18 18 18 18 19 20 20 21 21 22
28 28 26 26 26 25 24 23 22 20 18 17 16 13 12 10 10 9 9 9 10 12 12 14 15 16 17 15 13 12 13 16 17 18 20 21 22 19 19 19 20 20 20 22 25
30 30 30 29 29 29 29 27 26 25 23 22 21 20 18 16 13 12 12 11 12 13 13 15 15 17 18 18 17 16 15 16 17 18 21 23 24 25 22 19 20 21 22 24 27
35 34 34 33 33 34 33 32 31 30 29 27 25 25 23 23 21 17 16 15 15 15 15 16 17 17 17 18 20 19 19 21 23 22 21 22 25 30 27 27 27 27 27 28 30
37 37 37 37 37 37 37 36 35 35 33 32 30 29 28 28 27 25 21 20 19 20 20 20 21 21 20 19 21 22 24 27 28 26 24 20 23 29 27 28 30 32 33 33 34
39 38 38 38 39 40 41 40 39 38 38 36 35 34 32 32 32 31 29 27 25 24 24 25 25 25 25 24 25 26 26 27 30 30 28 26 21 31 32 30 30 33 34 34 36
39 39 38 38 39 41 43 44 43 43 41 41 40 39 36 35 35 35 34 33 31 30 28 27 29 29 29 29 29 30 31 30 31 35 34 33 24 31 31 32 35 38 36 34 35
40 40 40 40 39 40 42 43 46 46 46 45 45 44 40 38 38 37 36 36 35 34 33 32 33 33 33 34 34 35 35 34 34 39 38 35 34 30 33 36 37 38 37 37 37
44 44 44 43 42 41 41 43 44 47 48 48 50 48 45 42 39 38 39 39 38 37 36 37 36 35 37 38 38 40 40 39 38 42 45 39 40 36 33 38 40 37 41 42 41
48 48 47 47 47 46 44 44 45 47 48 49 50 50 49 45 44 40 39 42 40 39 39 39 38 38 40 42 42 43 44 43 44 45 48 46 44 42 37 39 40 43 43 45 47
51 50 51 51 50 49 48 47 47 48 51 46 48 49 48 49 47 44 42 42 41 40 41 41 39 40 44 45 45 47 48 49 50 49 50 52 51 50 36 37 39 41 42 45 47
53 52 51 51 52 50 51 51 50 50 56 51 45 44 44 46 46 42 44 44 43 42 42 44 43 45 47 47 49 53 49 52 53 55 57 52 60 56 51 44 42 43 46 49 48
56 56 54 53 52 51 51 52 53 53 65 58 49 44 41 39 40 41 43 45 46 46 47 48 49 49 50 50 50 54 53 54 56 55 60 56 60 62 54 53 46 52 51 53 54
57 57 58 57 55 54 54 54 56 58 70 61 52 48 46 44 42 43 43 46 48 51 51 49 52 53 52 51 52 53 54 58 59 59 65 58 63 65 55 53 54 52 53 57 57
56 58 58 60 59 58 57 57 59 69 65 61 55 51 49 46 47 48 48 50 51 51 52 52 52 54 53 53 53 54 55 59 63 62 64 64 70 59 58 59 53 53 56 60 62
55 57 58 59 61 61 60 61 70 71 66 62 58 54 55 53 52 52 53 55 53 53 54 54 58 53 56 55 58 59 58 56 60 62 68 70 71 68 66 60 58 51 61 61 59
59 59 59 58 60 62 63 69 75 70 67 64 61 60 59 56 55 55 58 60 57 54 53 54 60 58 57 58 60 62 60 57 59 62 68 70 68 73 68 57 61 59 60 64 66
64 64 63 61 64 65 66 72 74 69 68 63 64 65 65 60 60 61 62 62 60 57 52 54 56 58 60 66 67 64 62 61 62 65 71 69 73 76 68 62 63 56 65 66 67
69 70 67 67 67 67 74 75 70 66 64 64 65 65 63 61 61 61 62 63 61 61 60 59 57 59 59 61 63 64 67 66 67 71 74 75 73 70 66 60 64 58 66 67 70
78 78 76 72 76 75 77 73 72 70 67 68 68 65 64 63 65 67 68 65 61 62 65 65 64 66 65 68 70 68 63 62 66 70 76 81 74 63 64 64 61 60 70 73 73
78 76 80 82 78 78 80 78 76 76 72 71 71 72 66 67 69 69 67 62 62 64 64 63 67 70 73 74 76 72 69 70 69 74 84 78 73 63 66 63 62 64 71 72 69
77 82 83 87 85 82 78 76 81 79 78 80 77 73 74 73 70 72 71 67 64 66 70 62 67 75 73 73 76 79 76 76 74 82 83 82 84 65 65 66 63 69 70 69 64
72 80 84 89 89 86 81 85 83 81 80 79 81 78 72 74 74 77 70 67 67 68 70 71 75 74 75 75 78 78 73 74 79 78 82 75 82 72 64 64 67 69 67 64 57
80 83 85 88 88 89 88 81 77 83 85 84 86 83 81 83 78 75 66 65 68 70 75 78 80 78 81 77 78 80 76 77 77 73 78 73 74 59 62 61 62 63 62 57 59
87 84 87 85 83 82 84 93 91 80 84 86 87 84 90 85 72 66 70 74 74 73 72 76 78 75 79 74 79 81 75 73 70 71 71 71 65 60 59 55 56 60 56 56 58
Wind_Direction
239 237 238 245 249 250 248 252 256 255 265 316 345 349 1 3 14 20 19 21 27 26 24 20 15 10 356 323 309 314 315 315 309 302 296 293 289 287 287 284 280 276 281 279 284
233 237 237 243 248 253 254 255 255 258 258 270 299 322 340 347 354 356 354 358 8 7 5 359 1 6 3 353 339 316 315 319 319 320 320 315 308 301 297 294 288 285 281 285 288
238 237 239 242 247 250 253 254 257 258 259 259 268 280 298 318 328 332 335 337 344 350 353 349 347 349 359 356 0 347 327 320 319 317 320 320 317 311 303 292 291 292 286 285 288
242 242 243 245 248 251 254 254 254 256 259 260 260 263 270 282 297 307 315 324 325 333 334 339 338 342 338 342 345 350 348 340 334 329 327 324 320 312 299 296 290 287 289 292 292
245 245 247 248 251 253 254 255 254 255 254 256 260 262 265 269 275 284 293 304 308 314 318 320 328 334 334 329 330 333 333 329 327 329 327 328 324 317 315 307 295 287 283 284 284
247 246 246 248 251 252 252 254 255 254 255 254 255 256 260 263 267 273 279 286 294 298 304 307 313 320 325 327 323 317 320 318 315 314 316 324 322 313 315 309 304 299 293 286 282
250 249 247 248 250 252 253 255 256 258 256 255 255 257 261 264 267 270 272 277 284 289 296 301 303 307 312 315 316 314 313 316 312 310 313 317 320 309 312 308 306 299 293 290 288
253 252 252 250 250 250 253 255 256 258 259 259 259 257 257 262 265 268 270 273 280 282 287 294 298 301 305 308 309 311 310 311 308 305 308 309 322 309 313 313 311 300 293 288 285
254 254 254 254 254 254 255 256 257 259 261 261 262 262 261 262 267 268 270 274 279 282 282 287 292 295 299 305 306 308 309 308 305 301 303 303 308 307 310 315 314 307 300 296 288
254 256 256 255 254 255 257 260 260 260 261 263 264 267 268 268 268 268 270 273 278 280 282 284 287 292 293 301 304 305 307 306 306 300 301 302 302 302 307 312 315 313 308 305 300
255 256 257 259 259 258 259 261 263 264 263 265 265 264 267 271 273 274 274 275 279 282 282 282 286 292 289 297 300 302 305 307 304 300 300 301 301 303 303 309 312 313 314 309 303
256 258 258 258 258 258 259 261 264 267 265 267 267 267 268 270 271 273 277 276 277 281 281 282 287 286 290 294 297 298 299 303 302 299 297 299 301 298 304 307 311 308 310 306 301
256 258 258 259 259 260 261 262 263 266 268 264 268 269 270 270 271 273 274 277 280 283 284 285 286 285 288 290 295 295 298 300 301 300 298 298 302 299 301 305 306 306 306 301 302
256 258 260 260 260 262 263 265 266 266 269 267 265 268 271 273 273 274 273 275 277 279 280 281 284 287 288 292 294 294 296 297 299 301 301 299 304 302 307 310 314 309 309 307 300
258 258 259 261 262 263 264 266 267 268 270 274 272 269 271 271 272 270 271 271 273 276 277 283 286 285 288 291 291 294 295 295 296 298 297 300 298 299 307 311 314 316 314 308 308
258 258 259 260 262 263 264 266 268 268 266 272 277 277 275 273 273 273 271 270 271 274 276 280 283 285 288 289 290 292 293 293 295 296 294 301 295 294 305 309 312 315 311 307 306
257 257 257 259 260 261 263 264 265 262 268 273 276 278 281 278 275 274 274 273 276 279 281 282 283 285 288 290 292 291 291 293 295 295 297 298 294 301 302 305 308 311 309 307 305
257 258 258 258 259 260 260 261 261 265 268 272 275 278 278 277 278 278 278 278 280 282 284 286 285 286 289 289 289 289 291 291 291 294 297 294 295 301 301 305 304 310 308 303 304
257 257 257 257 257 259 259 259 263 265 267 272 275 274 275 276 276 276 277 279 281 282 282 284 285 288 288 289 289 289 291 292 289 290 290 294 300 296 300 303 305 311 304 304 305
258 257 258 258 257 259 258 260 262 264 270 273 274 275 276 276 276 276 275 276 279 282 284 284 282 281 281 279 281 287 287 288 288 288 287 295 297 295 300 306 305 309 304 306 304
260 259 258 260 259 259 262 264 265 269 270 271 271 272 275 277 278 278 279 277 281 283 283 280 276 279 282 285 282 278 280 284 285 286 290 292 293 299 310 305 306 309 302 301 303
261 259 262 261 258 258 259 265 267 267 267 270 272 273 273 276 277 277 278 282 285 285 285 285 286 287 287 284 282 282 285 286 285 287 286 283 291 306 307 303 307 308 301 300 303
265 263 262 261 260 260 262 264 264 268 270 270 272 271 273 273 274 277 281 282 283 282 282 282 279 280 277 280 279 284 285 284 286 285 283 284 300 309 306 308 305 300 295 298 304
262 266 265 261 261 263 264 264 265 268 268 269 272 271 270 271 273 277 279 280 279 279 279 271 270 271 278 287 282 281 283 285 285 283 290 293 300 303 304 304 301 294 294 298 299
254 257 263 265 261 262 264 264 263 262 266 268 270 275 277 273 273 274 277 277 275 275 276 276 278 282 284 286 277 277 286 286 282 288 286 296 298 304 306 302 291 293 296 298 298
261 261 267 261 262 266 264 258 260 265 267 271 272 272 272 272 276 276 274 271 271 272 274 275 277 278 278 283 282 276 285 281 289 293 287 292 291 311 299 296 296 293 293 296 296
256 250 257 262 260 259 262 263 263 262 263 271 273 273 271 273 277 271 268 270 272 271 272 271 272 273 276 281 278 276 289 292 288 288 288 286 298 297 296 296 292 290 291 292 291
Height
5890 5890 5890 5891 5891 5891 5891 5890 5890 5890 5890 5889 5888 5887 5885 5884 5881 5880 5878 5877 5875 5873 5870 5869 5867 5864 5862 5859 5857 5856 5855 5853 5851 5849 5849 5848 5846 5845 5844 5844 5842 5841 5840 5838 5837
5886 5887 5888 5888 5888 5888 5888 5888 5888 5888 5888 5888 5886 5886 5884 5883 5881 5879 5878 5876 5873 5871 5869 5867 5866 5863 5861 5858 5855 5854 5853 5850 5849 5847 5846 5845 5843 5841 5840 5839 5837 5836 5834 5833 5832
5883 5883 5884 5885 5885 5885 5885 5885 5885 5886 5885 5885 5884 5883 5882 5881 5880 5877 5875 5874 5872 5870 5868 5865 5863 5862 5859 5857 5854 5851 5850 5847 5846 5843 5842 5841 5840 5839 5836 5834 5832 5831 5829 5828 5827
5878 5879 5880 5880 5881 5881 5882 5882 5881 5881 5882 5882 5881 5880 5879 5879 5879 5876 5873 5871 5870 5868 5866 5864 5862 5859 5856 5855 5852 5849 5847 5845 5842 5841 5839 5837 5836 5835 5832 5831 5829 5827 5825 5824 5822
5873 5874 5875 5875 5876 5876 5876 5877 5877 5877 5877 5877 5877 5877 5876 5875 5875 5872 5870 5868 5866 5865 5863 5861 5860 5857 5854 5851 5849 5846 5844 5842 5840 5837 5835 5833 5831 5829 5829 5827 5825 5823 5821 5818 5816
5868 5869 5869 5870 5870 5870 5870 5871 5871 5871 5872 5872 5871 5871 5871 5871 5870 5869 5867 5865 5863 5861 5859 5857 5856 5854 5852 5849 5847 5844 5841 5838 5836 5834 5832 5831 5827 5823 5824 5822 5819 5817 5814 5811 5808
5862 5863 5863 5863 5864 5864 5864 5865 5865 5865 5865 5865 5865 5865 5866 5866 5865 5864 5862 5861 5859 5857 5855 5853 5851 5850 5848 5846 5844 5841 5838 5834 5832 5829 5827 5827 5824 5819 5819 5817 5814 5811 5807 5805 5802
5855 5856 5856 5857 5857 5857 5858 5858 5859 5858 5859 5859 5859 5858 5859 5858 5858 5858 5857 5856 5854 5853 5851 5848 5846 5845 5842 5840 5839 5836 5835 5832 5827 5823 5821 5820 5822 5813 5811 5811 5808 5804 5801 5799 5795
5848 5848 5848 5849 5850 5851 5850 5850 5851 5852 5852 5852 5852 5852 5852 5852 5852 5851 5851 5849 5848 5847 5845 5843 5841 5838 5837 5834 5833 5830 5827 5826 5824 5817 5814 5812 5815 5810 5807 5804 5800 5795 5793 5791 5787
5840 5841 5841 5841 5841 5842 5842 5842 5843 5843 5844 5844 5844 5846 5847 5846 5844 5844 5843 5842 5841 5840 5839 5838 5834 5832 5830 5827 5825 5823 5821 5819 5815 5810 5807 5805 5804 5806 5800 5796 5793 5789 5786 5783 5780
5832 5832 5833 5833 5834 5834 5834 5835 5835 5835 5835 5836 5835 5836 5837 5838 5838 5838 5837 5835 5834 5834 5832 5830 5829 5827 5822 5820 5817 5814 5812 5809 5808 5802 5795 5797 5793 5795 5795 5789 5786 5781 5778 5774 5770
5821 5823 5823 5824 5825 5825 5826 5825 5824 5824 5825 5824 5825 5826 5827 5829 5830 5830 5829 5827 5827 5825 5824 5823 5822 5818 5816 5813 5810 5806 5803 5802 5798 5793 5787 5785 5782 5783 5786 5783 5778 5773 5770 5764 5760
5811 5812 5813 5813 5815 5816 5816 5816 5815 5812 5809 5816 5815 5816 5819 5821 5821 5823 5821 5819 5817 5816 5813 5812 5813 5812 5808 5805 5802 5797 5794 5791 5787 5783 5780 5774 5769 5768 5780 5776 5771 5766 5762 5757 5750
5800 5802 5803 5803 5805 5806 5806 5806 5806 5804 5794 5800 5807 5807 5810 5811 5810 5812 5811 5810 5808 5807 5804 5802 5805 5801 5799 5797 5793 5787 5788 5782 5778 5773 5766 5768 5749 5752 5758 5763 5759 5755 5752 5745 5739
5790 5791 5792 5792 5793 5795 5796 5795 5795 5796 5777 5786 5796 5801 5802 5802 5802 5802 5801 5799 5798 5797 5796 5796 5794 5792 5789 5788 5784 5779 5776 5772 5769 5764 5755 5757 5748 5737 5746 5746 5748 5743 5738 5730 5725
5777 5778 5780 5781 5782 5783 5784 5783 5784 5782 5761 5775 5784 5789 5791 5793 5791 5790 5790 5788 5788 5786 5785 5786 5782 5780 5779 5776 5773 5769 5764 5759 5756 5753 5741 5747 5737 5722 5737 5736 5734 5731 5725 5716 5711
5764 5765 5766 5768 5770 5770 5770 5771 5770 5756 5762 5769 5774 5778 5779 5780 5780 5779 5778 5776 5776 5775 5774 5774 5772 5769 5767 5764 5761 5757 5752 5746 5740 5737 5733 5730 5716 5720 5724 5724 5722 5720 5711 5703 5697
5750 5752 5753 5754 5755 5756 5756 5757 5747 5749 5755 5759 5763 5766 5764 5766 5768 5767 5764 5763 5764 5763 5761 5759 5756 5758 5755 5752 5747 5743 5740 5737 5728 5724 5721 5713 5701 5704 5706 5711 5707 5705 5696 5687 5681
5735 5737 5739 5739 5738 5739 5740 5737 5732 5740 5743 5747 5751 5750 5752 5754 5753 5752 5751 5750 5751 5751 5749 5745 5742 5742 5740 5738 5735 5730 5727 5725 5716 5717 5710 5702 5696 5688 5695 5701 5693 5692 5681 5675 5667
5720 5721 5726 5724 5722 5721 5721 5717 5719 5729 5730 5736 5735 5736 5735 5738 5738 5738 5736 5737 5735 5737 5737 5733 5728 5728 5726 5722 5718 5718 5715 5711 5707 5700 5692 5687 5677 5670 5682 5687 5679 5676 5664 5659 5651
5702 5702 5710 5708 5706 5705 5703 5704 5708 5716 5721 5720 5718 5717 5721 5722 5721 5721 5721 5722 5724 5723 5716 5712 5711 5716 5712 5708 5706 5703 5699 5699 5693 5684 5679 5674 5656 5659 5670 5667 5663 5662 5650 5644 5637
5680 5682 5687 5689 5687 5688 5688 5695 5700 5699 5703 5701 5700 5704 5704 5707 5705 5703 5703 5710 5714 5709 5701 5696 5692 5693 5693 5687 5684 5684 5688 5688 5678 5672 5659 5651 5637 5662 5656 5651 5648 5645 5633 5627 5624
5657 5661 5662 5663 5666 5671 5675 5678 5681 5682 5687 5687 5684 5686 5692 5689 5685 5688 5693 5696 5694 5690 5686 5684 5675 5674 5671 5669 5666 5669 5670 5668 5666 5654 5632 5636 5631 5645 5638 5637 5635 5627 5617 5612 5608
5642 5637 5639 5637 5648 5650 5654 5660 5663 5669 5668 5665 5664 5668 5669 5671 5675 5668 5671 5675 5673 5669 5667 5659 5652 5649 5652 5655 5649 5646 5651 5650 5646 5630 5622 5612 5612 5626 5626 5620 5617 5604 5601 5596 5591
5622 5617 5619 5615 5625 5630 5635 5642 5644 5644 5649 5647 5647 5652 5656 5648 5651 5650 5656 5653 5653 5650 5646 5638 5629 5635 5635 5639 5629 5630 5637 5633 5622 5619 5609 5607 5599 5599 5609 5602 5593 5586 5582 5579 5575
5600 5603 5597 5604 5605 5603 5608 5620 5624 5628 5625 5629 5628 5632 5630 5626 5635 5631 5633 5632 5629 5628 5626 5620 5613 5614 5607 5620 5609 5604 5614 5612 5611 5608 5594 5596 5585 5602 5588 5582 5577 5570 5565 5564 5560
5582 5582 5576 5577 5582 5578 5585 5596 5605 5610 5605 5610 5609 5607 5605 5617 5612 5610 5606 5607 5608 5609 5608 5602 5597 5596 5586 5601 5583 5583 5604 5601 5597 5591 5583 5573 5578 5579 5570 5566 5560 5554 5552 5550 5544